Bradford, PA

11:41 AM EST on December 13, 2019 (GMT -0500)
Bradford Regional

Weather History for KBFD - October, 2019

Change the Weather History Date:

Sunday, October 20, 2019

  Actual Average Record
Temperature  
Mean Temperature 54 °F 45 °F  
Max Temperature 67 °F 56 °F 75 °F (1963)
Min Temperature 41 °F 35 °F 12 °F (1972)
Degree Days  
Heating Degree Days 11 15  
Month to date heating degree days 298 251  
Since 1 July heating degree days 508 668  
Cooling Degree Days 0 0  
Month to date cooling degree days 10 0  
Year to date cooling degree days 283 192  
Growing Degree Days 2 (Base 50)    
Moisture  
Dew Point 39 °F    
Average Humidity 65    
Maximum Humidity 89    
Minimum Humidity 41    
Precipitation  
Precipitation 0.00 in 0.10 in 0.92 in (2006)
Month to date precipitation 2.51 2.27  
Year to date precipitation 37.72 36.14  
Sea Level Pressure  
Sea Level Pressure 29.95 in    
Wind  
Wind Speed 3 mph (SSE)    
Max Wind Speed 10 mph    
Max Gust Speed 13 mph    
Visibility 10 miles    
Events      
T = Trace of Precipitation, MM = Missing Value Source: NWS Daily Summary

Daily Weather History Graph

Daily Weather History Graph

Search for Another Location

Airport or City:

Astronomy

Oct. 20, 2019 Rise Set
Actual Time 7:32 AM EDT 6:25 PM EDT
Civil Twilight 7:04 AM EDT 6:54 PM EDT
Nautical Twilight 6:31 AM EDT 7:26 PM EDT
Astronomical Twilight 5:59 AM EDT 7:58 PM EDT
Moon 11:29 PM EDT (10/20) 2:02 PM EDT (10/20)
Length of Visible Light 11h 50m
Length of Day
10h 53m
Waning Gibbous, 59% of the Moon is Illuminated
Oct 20
Waning Gibbous
Oct 21
Last Quarter
Oct 27
New
Nov 4
First Quarter
Nov 12
Full

Hourly Weather History & Observations

Time (EDT) Temp. Windchill Dew Point Humidity Pressure Visibility Wind Dir Wind Speed Gust Speed Precip Events Conditions
12:53 AM 46.9 °F - 37.0 °F 68% 29.93 in 10.0 mi SSE 4.6 mph - N/A   Clear
1:53 AM 46.9 °F - 37.9 °F 71% 29.92 in 10.0 mi SE 8.1 mph - N/A   Clear
2:53 AM 44.1 °F 40.8 °F 37.0 °F 76% 29.91 in 10.0 mi ESE 5.8 mph - N/A   Clear
3:53 AM 43.0 °F 40.3 °F 37.0 °F 80% 29.90 in 10.0 mi SE 4.6 mph - N/A   Clear
4:53 AM 43.0 °F 41.3 °F 37.9 °F 82% 29.91 in 10.0 mi SE 3.5 mph - N/A   Clear
5:53 AM 43.0 °F 40.3 °F 37.9 °F 82% 29.91 in 10.0 mi SE 4.6 mph - N/A   Clear
6:53 AM 41.0 °F - 37.0 °F 86% 29.92 in 10.0 mi Calm Calm - N/A   Clear
7:53 AM 42.1 °F 39.2 °F 37.9 °F 85% 29.93 in 10.0 mi SE 4.6 mph - N/A   Clear
8:53 AM 46.0 °F 43.1 °F 39.9 °F 79% 29.94 in 10.0 mi SE 5.8 mph - N/A   Clear
9:53 AM 50.0 °F - 39.9 °F 68% 29.95 in 10.0 mi SE 4.6 mph - N/A   Clear
10:53 AM 52.0 °F - 39.9 °F 63% 29.96 in 10.0 mi SSE 4.6 mph - N/A   Clear
11:53 AM 59.0 °F - 42.1 °F 53% 29.93 in 10.0 mi South 6.9 mph - N/A   Clear
12:53 PM 61.0 °F - 41.0 °F 48% 29.93 in 10.0 mi SSE 4.6 mph - N/A   Clear
1:53 PM 63.0 °F - 39.0 °F 41% 29.91 in 10.0 mi SW 8.1 mph - N/A   Clear
2:53 PM 64.0 °F - 39.9 °F 41% 29.92 in 10.0 mi SW 4.6 mph - N/A   Clear
3:53 PM 64.0 °F - 39.9 °F 41% 29.93 in 10.0 mi Variable 4.6 mph - N/A   Clear
4:53 PM 64.0 °F - 39.9 °F 41% 29.93 in 10.0 mi West 3.5 mph - N/A   Clear
6:53 PM 53.1 °F - 44.1 °F 71% 29.98 in 10.0 mi Calm Calm - N/A   Clear
7:53 PM 50.0 °F - 42.1 °F 74% 29.99 in 10.0 mi Calm Calm - N/A   Clear
8:53 PM 46.0 °F 44.8 °F 41.0 °F 83% 29.99 in 10.0 mi SE 3.5 mph - N/A   Clear
9:53 PM 46.0 °F - 41.0 °F 83% 30.01 in 10.0 mi Calm Calm - N/A   Clear
10:53 PM 45.0 °F - 39.9 °F 82% 30.03 in 10.0 mi Calm Calm - N/A   Clear
11:53 PM 42.1 °F - 39.0 °F 89% 30.03 in 2.0 mi Calm Calm - N/A   Clear